Time,TemperatureF,DewpointF,PressureIn,WindDirection,WindDirectionDegrees,WindSpeedMPH,WindSpeedGustMPH,Humidity,HourlyPrecipIn,Conditions,Clouds,dailyrainin,SoftwareType,DateUTC
2013-02-28 00:01:00,23.0,19.0,30.21,West,262,0.0,2.0,83,0.00,,,0.01,,2013-02-28 06:01:00,
2013-02-28 00:11:00,23.0,19.0,30.21,West,262,0.0,2.0,83,0.00,,,0.01,,2013-02-28 06:11:00,
2013-02-28 00:22:00,23.0,19.0,30.21,West,262,0.0,2.0,83,0.00,,,0.01,,2013-02-28 06:22:00,
2013-02-28 00:32:00,23.0,18.0,30.21,West,259,1.0,3.0,82,0.00,,,0.01,,2013-02-28 06:32:00,
2013-02-28 00:42:00,23.0,18.0,30.21,West,259,1.0,3.0,82,0.00,,,0.01,,2013-02-28 06:42:00,
2013-02-28 00:52:00,22.0,18.0,30.21,West,259,0.0,4.0,83,0.00,,,0.01,,2013-02-28 06:52:00,
2013-02-28 01:01:00,22.0,18.0,30.21,WSW,250,0.0,3.0,84,0.00,,,0.01,,2013-02-28 07:01:00,
2013-02-28 01:11:00,22.0,18.0,30.21,WSW,250,0.0,3.0,84,0.00,,,0.01,,2013-02-28 07:11:00,
2013-02-28 01:21:00,22.0,18.0,30.21,WSW,252,1.0,3.0,84,0.00,,,0.01,,2013-02-28 07:21:00,
2013-02-28 01:32:00,22.0,18.0,30.21,WSW,242,0.0,4.0,84,0.00,,,0.01,,2013-02-28 07:32:00,
2013-02-28 01:41:00,22.0,18.0,30.21,WSW,242,0.0,4.0,84,0.00,,,0.01,,2013-02-28 07:41:00,
2013-02-28 01:51:00,22.0,18.0,30.21,WSW,252,1.0,5.0,84,0.00,,,0.01,,2013-02-28 07:51:00,
2013-02-28 02:01:00,23.0,19.0,30.22,WSW,248,3.0,6.0,84,0.00,,,0.01,,2013-02-28 08:01:00,
2013-02-28 02:11:00,23.0,19.0,30.22,WSW,248,3.0,6.0,84,0.00,,,0.01,,2013-02-28 08:11:00,
2013-02-28 02:22:00,23.0,19.0,30.22,SW,233,3.0,7.0,84,0.00,,,0.01,,2013-02-28 08:22:00,
2013-02-28 02:32:00,22.0,18.0,30.22,WSW,248,3.0,6.0,84,0.00,,,0.01,,2013-02-28 08:32:00,
2013-02-28 02:42:00,22.0,18.0,30.22,WSW,248,3.0,6.0,84,0.00,,,0.01,,2013-02-28 08:42:00,
2013-02-28 02:52:00,22.0,18.0,30.22,WSW,238,0.0,4.0,84,0.00,,,0.01,,2013-02-28 08:52:00,
2013-02-28 03:03:00,22.0,18.0,30.23,WSW,252,1.0,6.0,85,0.00,,,0.01,,2013-02-28 09:03:00,
2013-02-28 03:11:00,22.0,18.0,30.23,WSW,252,1.0,6.0,85,0.00,,,0.01,,2013-02-28 09:11:00,
2013-02-28 03:22:00,21.0,17.0,30.24,WSW,252,1.0,4.0,84,0.00,,,0.01,,2013-02-28 09:22:00,
2013-02-28 03:32:00,21.0,17.0,30.24,WSW,248,1.0,5.0,85,0.00,,,0.01,,2013-02-28 09:32:00,
2013-02-28 03:42:00,21.0,17.0,30.24,WSW,248,1.0,5.0,85,0.00,,,0.01,,2013-02-28 09:42:00,
2013-02-28 03:52:00,21.0,17.0,30.23,WSW,249,1.0,5.0,84,0.00,,,0.01,,2013-02-28 09:52:00,
2013-02-28 04:02:00,21.0,17.0,30.23,West,260,2.0,5.0,85,0.00,,,0.01,,2013-02-28 10:02:00,
2013-02-28 04:11:00,21.0,17.0,30.23,West,260,2.0,5.0,85,0.00,,,0.01,,2013-02-28 10:11:00,
2013-02-28 04:22:00,21.0,17.0,30.23,WSW,246,3.0,6.0,85,0.00,,,0.01,,2013-02-28 10:22:00,
2013-02-28 04:32:00,21.0,17.0,30.23,WSW,243,3.0,6.0,85,0.00,,,0.01,,2013-02-28 10:32:00,
2013-02-28 04:42:00,21.0,17.0,30.23,WSW,243,3.0,6.0,85,0.00,,,0.01,,2013-02-28 10:42:00,
2013-02-28 04:52:00,20.0,16.0,30.23,WSW,243,2.0,6.0,85,0.00,,,0.01,,2013-02-28 10:52:00,
2013-02-28 05:01:00,20.0,16.0,30.23,WSW,246,2.0,5.0,85,0.00,,,0.01,,2013-02-28 11:01:00,
2013-02-28 05:11:00,20.0,16.0,30.23,WSW,246,2.0,5.0,85,0.00,,,0.01,,2013-02-28 11:11:00,
2013-02-28 05:22:00,20.0,16.0,30.23,North,355,1.0,3.0,85,0.00,,,0.01,,2013-02-28 11:22:00,
2013-02-28 05:32:00,19.0,15.0,30.23,North,351,0.0,0.0,85,0.00,,,0.01,,2013-02-28 11:32:00,
2013-02-28 05:42:00,19.0,15.0,30.23,North,351,0.0,0.0,85,0.00,,,0.01,,2013-02-28 11:42:00,
2013-02-28 05:52:00,18.0,15.0,30.23,West,270,0.0,2.0,86,0.00,,,0.01,,2013-02-28 11:52:00,
2013-02-28 06:02:00,19.0,16.0,30.23,WSW,252,0.0,4.0,87,0.00,,,0.01,,2013-02-28 12:02:00,
2013-02-28 06:11:00,19.0,16.0,30.23,WSW,252,0.0,4.0,87,0.00,,,0.01,,2013-02-28 12:11:00,
2013-02-28 06:22:00,19.0,16.0,30.23,WSW,258,1.0,3.0,87,0.00,,,0.01,,2013-02-28 12:22:00,
2013-02-28 06:32:00,19.0,16.0,30.24,WSW,252,1.0,6.0,87,0.00,,,0.01,,2013-02-28 12:32:00,
2013-02-28 06:42:00,19.0,16.0,30.24,WSW,252,1.0,6.0,87,0.00,,,0.01,,2013-02-28 12:42:00,
2013-02-28 06:52:00,19.0,16.0,30.24,WSW,257,0.0,1.0,87,0.00,,,0.01,,2013-02-28 12:52:00,
2013-02-28 07:02:00,18.0,15.0,30.24,WSW,256,0.0,3.0,86,0.00,,,0.01,,2013-02-28 13:02:00,
2013-02-28 07:11:00,18.0,15.0,30.24,WSW,256,0.0,3.0,86,0.00,,,0.01,,2013-02-28 13:11:00,
2013-02-28 07:22:00,19.0,16.0,30.24,WSW,246,1.0,4.0,87,0.00,,,0.01,,2013-02-28 13:22:00,
2013-02-28 07:32:00,19.0,16.0,30.24,West,271,0.0,8.0,87,0.00,,,0.01,,2013-02-28 13:32:00,
2013-02-28 07:42:00,19.0,16.0,30.24,West,271,0.0,8.0,87,0.00,,,0.01,,2013-02-28 13:42:00,
2013-02-28 07:52:00,19.0,16.0,30.25,WSW,248,0.0,4.0,86,0.00,,,0.01,,2013-02-28 13:52:00,
2013-02-28 08:01:00,19.0,16.0,30.26,WSW,255,0.0,3.0,86,0.00,,,0.01,,2013-02-28 14:01:00,
2013-02-28 08:11:00,19.0,16.0,30.26,WSW,255,0.0,3.0,86,0.00,,,0.01,,2013-02-28 14:11:00,
2013-02-28 08:22:00,18.0,15.0,30.26,West,261,1.0,4.0,86,0.00,,,0.01,,2013-02-28 14:22:00,
2013-02-28 08:32:00,18.0,15.0,30.26,WSW,248,1.0,5.0,87,0.00,,,0.01,,2013-02-28 14:32:00,
2013-02-28 08:42:00,18.0,15.0,30.26,WSW,248,1.0,5.0,87,0.00,,,0.01,,2013-02-28 14:42:00,
2013-02-28 08:52:00,20.0,16.0,30.26,WSW,256,3.0,6.0,86,0.00,,,0.01,,2013-02-28 14:52:00,
2013-02-28 09:02:00,21.0,17.0,30.27,WSW,256,3.0,6.0,84,0.00,,,0.01,,2013-02-28 15:02:00,
2013-02-28 09:11:00,21.0,17.0,30.27,WSW,256,3.0,6.0,84,0.00,,,0.01,,2013-02-28 15:11:00,
2013-02-28 09:21:00,22.0,18.0,30.28,WSW,252,1.0,6.0,84,0.00,,,0.01,,2013-02-28 15:21:00,
2013-02-28 09:32:00,22.0,18.0,30.28,WSW,252,1.0,6.0,84,0.00,,,0.01,,2013-02-28 15:32:00,
2013-02-28 09:42:00,22.0,18.0,30.28,WSW,252,1.0,6.0,84,0.00,,,0.01,,2013-02-28 15:42:00,
2013-02-28 09:52:00,22.0,18.0,30.29,West,262,2.0,7.0,85,0.00,,,0.01,,2013-02-28 15:52:00,
2013-02-28 10:02:00,22.0,18.0,30.29,WSW,250,2.0,6.0,86,0.00,,,0.01,,2013-02-28 16:02:00,
2013-02-28 10:11:00,22.0,18.0,30.29,WSW,250,2.0,6.0,86,0.00,,,0.01,,2013-02-28 16:11:00,
2013-02-28 10:22:00,23.0,19.0,30.29,WSW,248,4.0,9.0,85,0.00,,,0.01,,2013-02-28 16:22:00,
2013-02-28 10:32:00,23.0,19.0,30.29,WSW,250,1.0,6.0,85,0.00,,,0.00,,2013-02-28 16:32:00,
2013-02-28 10:42:00,23.0,19.0,30.29,WSW,250,1.0,6.0,85,0.00,,,0.00,,2013-02-28 16:42:00,
2013-02-28 10:52:00,23.0,19.0,30.29,West,275,2.0,6.0,85,0.00,,,0.00,,2013-02-28 16:52:00,
2013-02-28 11:02:00,24.0,20.0,30.29,West,261,1.0,5.0,84,0.00,,,0.00,,2013-02-28 17:02:00,
2013-02-28 11:12:00,25.0,21.0,30.29,WSW,248,1.0,6.0,84,0.00,,,0.00,,2013-02-28 17:12:00,
2013-02-28 11:22:00,25.0,21.0,30.29,WSW,248,1.0,6.0,84,0.00,,,0.00,,2013-02-28 17:22:00,
2013-02-28 11:32:00,26.0,21.0,30.29,WSW,256,2.0,5.0,82,0.00,,,0.00,,2013-02-28 17:32:00,
2013-02-28 11:42:00,26.0,21.0,30.29,WSW,256,2.0,5.0,82,0.00,,,0.00,,2013-02-28 17:42:00,
2013-02-28 11:52:00,26.0,21.0,30.29,WSW,257,2.0,6.0,82,0.00,,,0.00,,2013-02-28 17:52:00,
2013-02-28 12:02:00,27.0,22.0,30.28,WSW,238,3.0,7.0,81,0.00,,,0.00,,2013-02-28 18:02:00,
2013-02-28 12:11:00,27.0,22.0,30.28,WSW,238,3.0,7.0,81,0.00,,,0.00,,2013-02-28 18:11:00,
2013-02-28 12:22:00,28.0,23.0,30.28,SSW,211,3.0,9.0,80,0.00,,,0.00,,2013-02-28 18:22:00,
2013-02-28 12:32:00,29.0,23.0,30.28,WSW,255,3.0,10.0,79,0.00,,,0.00,,2013-02-28 18:32:00,
2013-02-28 12:42:00,29.0,23.0,30.28,WSW,255,3.0,10.0,79,0.00,,,0.00,,2013-02-28 18:42:00,
2013-02-28 12:52:00,29.0,23.0,30.27,SW,225,3.0,7.0,79,0.00,,,0.00,,2013-02-28 18:52:00,
2013-02-28 13:02:00,30.0,24.0,30.27,WSW,250,3.0,8.0,77,0.00,,,0.00,,2013-02-28 19:02:00,
2013-02-28 13:11:00,30.0,24.0,30.27,WSW,250,3.0,8.0,77,0.00,,,0.00,,2013-02-28 19:11:00,
2013-02-28 13:21:00,30.0,24.0,30.26,WSW,247,3.0,9.0,77,0.00,,,0.00,,2013-02-28 19:21:00,
2013-02-28 13:32:00,31.0,24.0,30.26,WSW,246,4.0,9.0,74,0.00,,,0.00,,2013-02-28 19:32:00,
2013-02-28 13:42:00,31.0,24.0,30.26,WSW,246,4.0,9.0,74,0.00,,,0.00,,2013-02-28 19:42:00,
2013-02-28 13:51:00,33.0,25.0,30.26,WSW,242,3.0,7.0,72,0.00,,,0.00,,2013-02-28 19:51:00,
2013-02-28 14:01:00,34.0,26.0,30.25,WSW,245,2.0,7.0,71,0.00,,,0.00,,2013-02-28 20:01:00,
2013-02-28 14:12:00,34.0,26.0,30.25,WSW,245,2.0,7.0,71,0.00,,,0.00,,2013-02-28 20:12:00,
2013-02-28 14:22:00,35.0,25.0,30.24,NNW,327,2.0,6.0,67,0.00,,,0.00,,2013-02-28 20:22:00,
2013-02-28 14:32:00,36.0,26.0,30.23,WSW,250,0.0,5.0,67,0.00,,,0.00,,2013-02-28 20:32:00,
2013-02-28 14:42:00,36.0,26.0,30.23,WSW,250,0.0,5.0,67,0.00,,,0.00,,2013-02-28 20:42:00,
2013-02-28 14:52:00,37.0,26.0,30.22,WNW,300,2.0,5.0,64,0.00,,,0.00,,2013-02-28 20:52:00,
2013-02-28 15:02:00,37.0,26.0,30.22,West,259,0.0,4.0,64,0.00,,,0.00,,2013-02-28 21:02:00,
2013-02-28 15:11:00,37.0,26.0,30.22,West,259,0.0,4.0,64,0.00,,,0.00,,2013-02-28 21:11:00,
2013-02-28 15:22:00,38.0,26.0,30.22,WNW,284,0.0,4.0,62,0.00,,,0.00,,2013-02-28 21:22:00,
2013-02-28 15:32:00,39.0,26.0,30.22,WSW,248,0.0,3.0,59,0.00,,,0.00,,2013-02-28 21:32:00,
2013-02-28 15:42:00,39.0,26.0,30.22,WSW,248,0.0,3.0,59,0.00,,,0.00,,2013-02-28 21:42:00,
2013-02-28 15:52:00,39.0,25.0,30.21,WSW,257,2.0,5.0,58,0.00,,,0.00,,2013-02-28 21:52:00,
2013-02-28 16:01:00,40.0,27.0,30.21,WSW,247,1.0,4.0,59,0.00,,,0.00,,2013-02-28 22:01:00,
2013-02-28 16:11:00,40.0,27.0,30.21,WSW,247,1.0,4.0,59,0.00,,,0.00,,2013-02-28 22:11:00,
2013-02-28 16:21:00,40.0,26.0,30.21,WSW,250,2.0,4.0,58,0.00,,,0.00,,2013-02-28 22:21:00,
2013-02-28 16:32:00,41.0,27.0,30.21,WSW,241,0.0,3.0,57,0.00,,,0.00,,2013-02-28 22:32:00,
2013-02-28 16:42:00,41.0,27.0,30.21,WSW,241,0.0,3.0,57,0.00,,,0.00,,2013-02-28 22:42:00,
2013-02-28 16:52:00,42.0,27.0,30.21,SSE,148,0.0,1.0,54,0.00,,,0.00,,2013-02-28 22:52:00,
2013-02-28 17:01:00,41.0,26.0,30.20,WSW,248,0.0,3.0,55,0.00,,,0.00,,2013-02-28 23:01:00,
2013-02-28 17:11:00,41.0,26.0,30.20,WSW,248,0.0,3.0,55,0.00,,,0.00,,2013-02-28 23:11:00,
2013-02-28 17:22:00,41.0,26.0,30.20,WSW,254,0.0,3.0,55,0.00,,,0.00,,2013-02-28 23:22:00,
2013-02-28 17:32:00,41.0,26.0,30.20,WSW,254,0.0,3.0,54,0.00,,,0.00,,2013-02-28 23:32:00,
2013-02-28 17:42:00,41.0,26.0,30.20,WSW,254,0.0,3.0,54,0.00,,,0.00,,2013-02-28 23:42:00,
2013-02-28 17:52:00,40.0,26.0,30.20,NNE,21,1.0,3.0,56,0.00,,,0.00,,2013-02-28 23:52:00,
2013-02-28 18:01:00,39.0,27.0,30.20,NNE,22,0.0,2.0,61,0.00,,,0.00,,2013-03-01 00:01:00,
2013-02-28 18:11:00,39.0,27.0,30.20,NNE,22,0.0,2.0,61,0.00,,,0.00,,2013-03-01 00:11:00,
2013-02-28 18:22:00,38.0,27.0,30.20,NNE,16,0.0,1.0,63,0.00,,,0.00,,2013-03-01 00:22:00,
2013-02-28 18:32:00,37.0,27.0,30.20,North,5,0.0,4.0,67,0.00,,,0.00,,2013-03-01 00:32:00,
2013-02-28 18:42:00,37.0,27.0,30.20,North,5,0.0,4.0,67,0.00,,,0.00,,2013-03-01 00:42:00,
2013-02-28 18:51:00,35.0,26.0,30.21,North,5,0.0,0.0,69,0.00,,,0.00,,2013-03-01 00:51:00,
2013-02-28 19:01:00,34.0,26.0,30.21,North,5,0.0,0.0,72,0.00,,,0.00,,2013-03-01 01:01:00,
2013-02-28 19:11:00,34.0,26.0,30.21,North,5,0.0,0.0,72,0.00,,,0.00,,2013-03-01 01:11:00,
2013-02-28 19:21:00,33.0,25.0,30.21,North,5,0.0,0.0,73,0.00,,,0.00,,2013-03-01 01:21:00,
2013-02-28 19:32:00,32.0,25.0,30.22,North,5,0.0,0.0,75,0.00,,,0.00,,2013-03-01 01:32:00,
2013-02-28 19:42:00,32.0,25.0,30.22,North,5,0.0,0.0,75,0.00,,,0.00,,2013-03-01 01:42:00,
2013-02-28 19:51:00,31.0,25.0,30.22,North,5,0.0,0.0,77,0.00,,,0.00,,2013-03-01 01:51:00,
2013-02-28 20:01:00,30.0,24.0,30.22,North,5,0.0,0.0,79,0.00,,,0.00,,2013-03-01 02:01:00,
2013-02-28 20:11:00,30.0,24.0,30.22,North,5,0.0,0.0,79,0.00,,,0.00,,2013-03-01 02:11:00,
2013-02-28 20:21:00,29.0,24.0,30.22,North,5,0.0,0.0,80,0.00,,,0.00,,2013-03-01 02:21:00,
2013-02-28 20:32:00,28.0,23.0,30.22,North,5,0.0,0.0,80,0.00,,,0.00,,2013-03-01 02:32:00,
2013-02-28 20:42:00,28.0,23.0,30.22,North,5,0.0,0.0,80,0.00,,,0.00,,2013-03-01 02:42:00,
2013-02-28 20:52:00,28.0,23.0,30.23,North,5,0.0,0.0,82,0.00,,,0.00,,2013-03-01 02:52:00,
2013-02-28 21:02:00,27.0,23.0,30.22,North,5,0.0,0.0,83,0.00,,,0.00,,2013-03-01 03:02:00,
2013-02-28 21:11:00,27.0,23.0,30.22,North,5,0.0,0.0,83,0.00,,,0.00,,2013-03-01 03:11:00,
2013-02-28 21:21:00,26.0,22.0,30.22,North,5,0.0,0.0,84,0.00,,,0.00,,2013-03-01 03:21:00,
2013-02-28 21:32:00,26.0,22.0,30.23,North,5,0.0,0.0,84,0.00,,,0.00,,2013-03-01 03:32:00,
2013-02-28 21:42:00,26.0,22.0,30.23,North,5,0.0,0.0,84,0.00,,,0.00,,2013-03-01 03:42:00,
2013-02-28 21:51:00,26.0,22.0,30.23,North,5,0.0,2.0,84,0.00,,,0.00,,2013-03-01 03:51:00,
2013-02-28 22:01:00,25.0,21.0,30.23,NE,50,0.0,2.0,84,0.00,,,0.00,,2013-03-01 04:01:00,
2013-02-28 22:11:00,25.0,21.0,30.23,NE,50,0.0,2.0,84,0.00,,,0.00,,2013-03-01 04:11:00,
2013-02-28 22:21:00,25.0,21.0,30.24,NNE,28,0.0,2.0,85,0.00,,,0.00,,2013-03-01 04:21:00,
2013-02-28 22:32:00,25.0,21.0,30.24,ENE,68,0.0,2.0,85,0.00,,,0.00,,2013-03-01 04:32:00,
2013-02-28 22:42:00,25.0,21.0,30.24,ENE,68,0.0,2.0,85,0.00,,,0.00,,2013-03-01 04:42:00,
2013-02-28 22:52:00,25.0,21.0,30.24,ENE,59,0.0,2.0,84,0.00,,,0.00,,2013-03-01 04:52:00,
2013-02-28 23:02:00,25.0,21.0,30.24,ENE,59,0.0,1.0,85,0.00,,,0.00,,2013-03-01 05:02:00,
2013-02-28 23:11:00,25.0,21.0,30.24,ENE,59,0.0,1.0,85,0.00,,,0.00,,2013-03-01 05:11:00,
2013-02-28 23:22:00,25.0,21.0,30.24,ENE,59,0.0,0.0,86,0.00,,,0.00,,2013-03-01 05:22:00,
2013-02-28 23:32:00,26.0,22.0,30.24,ENE,59,0.0,0.0,86,0.00,,,0.00,,2013-03-01 05:32:00,
2013-02-28 23:42:00,26.0,22.0,30.24,ENE,59,0.0,0.0,86,0.00,,,0.00,,2013-03-01 05:42:00,
2013-02-28 23:52:00,26.0,22.0,30.24,ENE,59,0.0,0.0,86,0.00,,,0.00,,2013-03-01 05:52:00,